Weather History for MMMX - August, 2013

Change the Weather History Date:

Wednesday, August 28, 2013

  Actual Average Record
Temperature  
Mean Temperature 68 °F -  
Max Temperature 77 °F 71 °F 77 °F (2003)
Min Temperature 59 °F 53 °F 51 °F (2006)
Cooling Degree Days 3    
Growing Degree Days 18 (Base 50)    
Moisture  
Dew Point 50 °F    
Average Humidity 60    
Maximum Humidity 82    
Minimum Humidity 26    
Precipitation  
Precipitation 3.55 in - - ()
Sea Level Pressure  
Sea Level Pressure 30.19 in    
Wind  
Wind Speed 6 mph ()    
Max Wind Speed 18 mph    
Max Gust Speed -    
Visibility 9.2 miles    
Events      
Averages and records for this station are not official NWS values.
T = Trace of Precipitation, MM = Missing Value Source: Averaged Metar Reports

Daily Weather History Graph

Daily Weather History Graph

Search for Another Location

Airport or City:

Trip Planner

Search our weather history database for the weather conditions in past years. The results will help you decide how hot, cold, wet, or windy it might be!

Date:

Astronomy

Aug. 28, 2013 Rise Set
Actual Time 7:20 AM CDT 7:54 PM CDT
Civil Twilight 6:58 AM CDT 8:16 PM CDT
Nautical Twilight 6:31 AM CDT 8:42 PM CDT
Astronomical Twilight 6:05 AM CDT 9:09 PM CDT
Moon 12:49 AM CDT (8/28) 2:11 PM CDT (8/28)
Length of Visible Light 13h 18m
Length of Day
12h 33m
Waning Gibbous, 47% of the Moon is Illuminated
Aug 28
Waning Gibbous
Sep 5
New
Sep 12
First Quarter
Sep 19
Full
Sep 26
Last Quarter

Hourly Weather History & Observations

Time (CDT) Temp. Dew Point Humidity Pressure Visibility Wind Dir Wind Speed Gust Speed Precip Events Conditions
12:50 AM 60.8 °F 51.8 °F 72% 29.86 in 15.0 mi NE 4.6 mph - N/A   Mostly Cloudy
1:54 AM 60.8 °F 53.6 °F 77% 30.32 in 12.0 mi NNE 6.9 mph - N/A   Mostly Cloudy
2:54 AM 60.8 °F 51.8 °F 72% 30.31 in 10.0 mi North 4.6 mph - N/A   Mostly Cloudy
3:45 AM 59.0 °F 53.6 °F 82% 29.82 in 15.0 mi NNE 5.8 mph - N/A   Mostly Cloudy
4:45 AM 59.0 °F 53.6 °F 82% 30.29 in 15.0 mi NE 4.6 mph - N/A   Mostly Cloudy
5:46 AM 59.0 °F 53.6 °F 82% 30.30 in 15.0 mi North 4.6 mph - N/A   Mostly Cloudy
6:49 AM 59.0 °F 53.6 °F 82% 29.85 in 10.0 mi NW 3.5 mph - N/A   Overcast
7:21 AM 60.8 °F 53.6 °F 77% 30.32 in 6.0 mi WNW 3.5 mph - N/A   Mostly Cloudy
7:46 AM 60.8 °F 53.6 °F 77% 30.32 in 6.0 mi WSW 3.5 mph - N/A   Mostly Cloudy
8:21 AM 60.8 °F 53.6 °F 77% 30.32 in 0.0 mi North 5.8 mph - N/A   Mostly Cloudy
8:28 AM 60.8 °F 53.6 °F 77% 30.32 in 6.0 mi North 5.8 mph - N/A   Mostly Cloudy
8:43 AM 60.8 °F 51.8 °F 72% 30.34 in 6.0 mi North 5.8 mph - N/A   Mostly Cloudy
9:22 AM 60.8 °F 50.0 °F 68% 30.35 in 6.0 mi NE 6.9 mph - N/A   Mostly Cloudy
9:43 AM 62.6 °F 50.0 °F 63% 29.87 in 6.0 mi NNE 5.8 mph - N/A   Mostly Cloudy
10:21 AM 64.4 °F 51.8 °F 64% 30.37 in 6.0 mi Calm Calm - N/A   Mostly Cloudy
10:47 AM 66.2 °F 51.8 °F 60% 30.37 in 6.0 mi West 6.9 mph - N/A   Mostly Cloudy
11:46 AM 68.0 °F 51.8 °F 56% 30.37 in 6.0 mi West 5.8 mph - N/A   Mostly Cloudy
12:47 PM 69.8 °F 50.0 °F 49% 29.83 in 6.0 mi West 5.8 mph - N/A   Mostly Cloudy
1:50 PM 71.6 °F 46.4 °F 41% 30.32 in 6.0 mi West 8.1 mph - N/A   Mostly Cloudy
2:24 PM 75.2 °F 46.4 °F 36% 30.30 in 8.0 mi NE 5.8 mph - N/A   Mostly Cloudy
2:45 PM 75.2 °F 44.6 °F 34% 30.30 in 8.0 mi NNW 6.9 mph - N/A   Mostly Cloudy
3:48 PM 75.2 °F 41.0 °F 29% 29.75 in 10.0 mi North 10.4 mph - N/A   Mostly Cloudy
4:48 PM 77.0 °F 39.2 °F 26% 30.25 in 12.0 mi NNW 16.1 mph - N/A   Mostly Cloudy
5:24 PM 73.4 °F 44.6 °F 36% - 12.0 mi North 13.8 mph - N/A   Mostly Cloudy
5:47 PM 73.4 °F 46.4 °F 38% 30.25 in 12.0 mi North 11.5 mph - N/A   Mostly Cloudy
6:50 PM 71.6 °F 48.2 °F 43% 29.74 in 10.0 mi North 15.0 mph - N/A   Mostly Cloudy
7:47 PM 68.0 °F 48.2 °F 49% - 8.0 mi North 18.4 mph - N/A   Overcast
7:50 PM 68.0 °F 48.2 °F 49% 30.29 in 8.0 mi North 18.4 mph - N/A   Overcast
8:50 PM 66.2 °F 50.0 °F 56% 30.31 in 12.0 mi North 13.8 mph - N/A   Mostly Cloudy
9:44 PM 64.4 °F 50.0 °F 59% 29.83 in 12.0 mi NNW 9.2 mph - N/A   Mostly Cloudy
10:44 PM 62.6 °F 48.2 °F 59% 30.37 in 12.0 mi West 9.2 mph - N/A   Mostly Cloudy
11:44 PM 60.8 °F 50.0 °F 68% 30.38 in 12.0 mi West 4.6 mph - N/A   Mostly Cloudy